Location: Arpaise
(41.0333°N, 14.7333°E)
Time: 22:09:02
(UTC+00:00)

Cosmos 846 Rocket - Pass Details

Date: 21 January 2021
Orbit: 948 x 991 km, 82.9° (Epoch: 06 March)

Event Time Altitude Azimuth Distance (km) Brightness Sun altitude
Rises 03:40:49 0° 13° (NNE) 3,633 8.6 -29.9°
Reaches altitude 10° 03:46:51 10° 59° (ENE) 2,675 8.5 -28.8°
Maximum altitude 03:47:12 10° 62° (ENE) 2,672 8.5 -28.7°
Drops below altitude 10° 03:47:32 10° 66° (ENE) 2,674 8.6 -28.7°
Sets 03:53:30 0° 111° (ESE) 3,613 9.6 -27.5°
